Date,TemperatureHighF,TemperatureAvgF,TemperatureLowF,DewpointHighF,DewpointAvgF,DewpointLowF,HumidityHigh,HumidityAvg,HumidityLow,PressureMaxIn,PressureMinIn,WindSpeedMaxMPH,WindSpeedAvgMPH,GustSpeedMaxMPH,PrecipitationSumIn
2013-1-1,37.7,32.1,23.8,35.9,29.7,20.3,94,90,84,30.30,30.04,14,5,14,0.00
2013-1-2,39.8,27.7,17.4,28.9,22.6,14.7,91,81,64,30.33,30.21,16,2,16,0.00
2013-1-3,45.1,31.5,21.8,32.2,24.5,19.1,92,77,46,30.48,30.32,11,1,11,0.00
2013-1-4,47.5,32.7,18.8,31.3,23.0,15.8,91,70,44,30.50,30.33,18,3,18,0.01
2013-1-5,49.2,40.1,30.3,34.3,30.8,25.0,86,70,55,30.33,30.16,23,5,23,0.00
2013-1-6,49.7,36.1,26.8,27.6,23.2,18.8,86,62,36,30.43,30.27,15,2,15,0.00
2013-1-7,27.5,25.7,23.7,19.9,18.5,17.0,79,74,71,30.35,30.30,0,0,1,0.00
2013-1-8,56.5,42.7,29.0,44.2,34.5,22.9,92,74,51,30.17,30.02,14,3,21,0.06
2013-1-9,52.6,48.6,45.5,47.4,45.0,42.7,94,88,72,30.30,30.12,13,6,19,0.11
2013-1-10,57.1,51.3,48.2,53.7,48.8,45.1,94,91,77,30.11,29.78,14,8,23,0.18
2013-1-11,69.1,56.5,45.0,50.9,46.3,42.7,93,70,47,29.84,29.65,20,11,31,0.00
2013-1-12,60.3,39.8,26.1,52.0,30.3,21.4,88,71,39,30.08,29.74,30,7,30,0.22
2013-1-13,31.4,24.5,19.3,21.3,16.5,12.8,82,72,54,30.41,29.98,20,3,20,0.00
2013-1-14,34.2,25.1,17.7,17.3,15.3,12.9,83,67,45,30.51,30.34,17,5,17,0.00
2013-1-15,34.4,26.3,19.5,21.4,16.6,13.3,86,68,46,30.35,30.20,16,4,16,0.00
2013-1-16,48.0,30.9,16.1,23.0,17.2,10.9,81,59,35,30.25,30.12,15,2,15,0.03
2013-1-17,53.6,39.5,26.7,33.2,27.0,18.5,80,62,41,30.49,30.22,23,4,23,0.00
2013-1-18,57.6,42.8,27.4,34.2,29.8,22.8,85,63,39,30.50,30.18,30,8,30,0.00
2013-1-19,66.6,51.7,40.9,39.3,35.7,32.6,73,56,35,30.18,30.05,24,6,24,0.00
2013-1-20,64.4,46.5,32.6,44.1,33.7,19.0,80,62,42,30.27,30.08,24,5,24,0.00
2013-1-21,40.7,30.9,22.4,19.2,16.0,13.1,71,55,37,30.42,30.26,19,6,19,0.00
2013-1-22,54.4,36.0,20.1,31.9,23.8,14.6,82,63,41,30.32,30.17,22,4,24,0.00
2013-1-23,65.0,44.2,27.8,47.8,35.3,23.3,86,72,50,30.25,30.10,13,3,13,0.00
2013-1-24,46.9,40.5,35.6,40.3,27.1,23.5,78,59,48,30.24,30.08,21,8,21,0.00
2013-1-25,46.3,37.9,28.7,32.0,27.4,22.2,80,66,54,30.25,30.11,13,2,13,0.00
2013-1-26,51.0,41.8,29.9,38.5,32.1,24.5,87,69,52,30.25,30.08,17,5,17,0.00
2013-1-27,60.4,53.5,45.3,56.6,50.1,37.3,94,88,72,30.08,29.85,29,11,35,0.02
2013-1-28,75.2,68.2,60.5,63.0,61.6,56.6,88,80,65,29.90,29.70,33,15,33,0.00
2013-1-29,71.8,59.2,41.5,63.5,54.5,38.5,94,85,64,29.70,29.37,36,10,36,0.94
2013-1-30,41.9,36.4,25.8,38.7,28.2,21.9,91,73,55,30.07,29.57,34,11,34,0.01
2013-1-31,56.3,33.4,23.0,30.7,22.3,11.9,86,67,28,30.46,30.02,24,6,27,0.00